DateTimeUTC,F1_A11,F1_S11,BsB_S11,BsG_S11,BsR_S11,BbsB_S11,BbsG_S11,BbsR_S11,BaB_A11,BaG_A11,BaR_A11,Tu_S11,T_S11,Uu_S11,U_S11,P_S11,T1_A11
2021-10-13T05:00:00Z,00000200,21000000,,,,,,,0000.31,0000.68,-000.08,16.9,24.2,,00.0,0669.4,31.0
2021-10-13T05:01:00Z,00000200,21000000,,,,,,,0000.41,0000.35,0000.50,16.9,24.3,,00.0,0669.4,31.0
2021-10-13T05:02:00Z,00000200,21000000,,,,,,,0000.31,0000.31,0000.25,17.0,24.3,,00.0,0669.4,31.0
2021-10-13T05:03:00Z,00000200,61000000,,,,,,,0005.68,0004.89,0003.73,17.0,24.3,,00.0,0669.4,31.0
2021-10-13T05:04:00Z,00000200,41000000,0018.70,0013.33,0008.25,0004.29,0003.32,0002.34,0170.72,0155.71,0122.33,17.4,24.2,,00.0,0670.3,31.0
2021-10-13T05:05:00Z,00000200,01000000,0012.76,0009.03,0005.47,0002.89,0002.02,0001.61,0188.69,0176.71,0142.51,17.5,24.2,,00.0,0670.4,31.0
2021-10-13T05:06:00Z,00000200,01000000,0001.54,0000.82,0000.24,0000.50,0000.57,0000.19,0003.67,0003.23,0002.28,17.4,24.2,,00.0,0670.3,31.0
2021-10-13T05:07:00Z,00000200,01000000,0001.14,0000.67,-000.01,0000.55,0000.21,0000.12,0001.21,0000.97,0000.93,17.4,24.1,,00.0,0670.3,31.0
2021-10-13T05:08:00Z,00000200,01000000,0000.86,0000.89,0000.12,0000.26,0000.30,0000.28,0000.30,0000.62,0000.14,17.3,24.1,,00.0,0670.3,31.0
2021-10-13T05:09:00Z,00000200,01000000,0001.31,0000.64,0000.05,0000.85,-000.06,0000.05,0000.76,0000.86,0000.16,17.2,24.1,,00.0,0670.3,30.9
2021-10-13T05:10:00Z,00000200,01000000,0001.11,0000.72,0000.19,0000.81,0000.32,0000.26,0000.43,-000.24,0000.48,17.1,24.0,,00.0,0670.3,30.9
2021-10-13T05:11:00Z,00000200,01000000,0000.63,0000.87,0000.21,0000.61,0000.43,-000.05,0000.34,0000.83,0000.49,17.1,24.0,,00.0,0670.3,30.9
2021-10-13T05:12:00Z,00000200,01000000,0000.76,0000.80,0000.14,0000.67,0000.49,-000.02,0000.76,0000.41,0000.17,17.1,23.9,,00.0,0670.2,30.9
2021-10-13T05:13:00Z,00000200,01000000,0001.36,0001.02,0000.44,0000.52,0000.20,0000.44,0000.46,0000.33,0000.61,17.1,23.9,,00.0,0670.2,30.9
2021-10-13T05:14:00Z,00000200,01000000,0002.45,0000.29,0000.37,0001.32,0000.35,0000.01,0000.75,0001.07,0000.37,17.1,23.9,,00.0,0670.2,30.9
2021-10-13T05:15:00Z,00000200,01000000,0001.03,0000.45,0000.11,0000.96,0000.19,0000.15,0000.49,0000.01,0000.39,17.1,23.9,,00.0,0670.2,30.9
2021-10-13T05:16:00Z,00000200,01000000,0000.38,0000.51,0000.17,-000.26,-000.00,-000.06,0000.38,0000.79,0000.54,17.2,24.0,,00.0,0670.3,30.9
2021-10-13T05:17:00Z,00000200,01000000,0000.53,0000.75,0000.22,0000.96,0000.18,-000.07,0000.52,0000.48,0000.10,17.3,24.0,,00.0,0670.3,31.0
2021-10-13T05:18:00Z,00000200,01000000,0000.29,0000.65,-000.10,0000.22,0000.28,-000.36,0000.39,0000.27,0000.68,17.3,24.0,,00.0,0670.3,31.0
2021-10-13T05:19:00Z,00000200,01000000,0000.58,0000.82,0000.17,-000.14,-000.05,-000.02,0000.09,0000.12,-000.21,17.4,24.0,,00.0,0670.3,31.0
2021-10-13T05:20:00Z,00000200,01000000,0000.53,0000.89,0000.33,0000.96,0000.23,-000.07,0000.62,0000.41,0000.46,17.4,24.0,,00.0,0670.3,31.0
2021-10-13T05:21:00Z,00000200,01000000,0001.19,0000.56,0000.17,0000.43,0000.17,0000.10,0000.49,0000.27,-000.07,17.4,24.1,,00.0,0670.3,31.0
2021-10-13T05:22:00Z,00000200,01000000,0001.35,0001.00,0000.33,0001.19,0000.44,0000.30,-000.12,-000.32,-000.06,17.4,24.1,,00.0,0670.2,31.0
2021-10-13T05:23:00Z,00000200,01000000,0001.11,0001.14,0000.48,0000.42,0000.04,-000.06,0000.21,0000.43,0000.17,17.3,24.0,,00.0,0670.2,31.0
2021-10-13T05:24:00Z,00000200,01000000,0001.03,0001.37,0000.16,0000.58,0000.07,-000.04,0002.01,0001.83,0001.43,17.2,24.0,,00.0,0670.2,31.0
2021-10-13T05:25:00Z,00000200,01000000,0001.05,0000.93,0000.04,0000.06,0000.18,0000.30,0000.88,0000.53,0000.11,17.2,24.0,,00.0,0670.2,30.9
2021-10-13T05:26:00Z,00000200,01000000,0001.51,0000.75,0000.38,0000.74,0000.16,0000.14,0000.01,0000.40,0000.39,17.1,23.9,,00.0,0670.2,30.9
2021-10-13T05:27:00Z,00000200,01000000,0000.26,0000.72,0000.20,-000.14,0000.37,0000.04,0000.44,0000.57,0000.70,17.1,23.9,,00.0,0670.2,30.9
2021-10-13T05:28:00Z,00000200,01000000,0001.00,0001.00,0000.46,0001.14,0000.27,0000.04,0000.64,0000.27,0000.18,17.1,23.9,,00.0,0670.3,30.9
2021-10-13T05:29:00Z,00000200,01000000,0001.30,0000.97,0000.46,0001.10,0000.00,0000.38,0000.68,0000.66,0000.51,17.1,23.9,,00.0,0670.3,30.9
2021-10-13T05:30:00Z,00000200,01000000,0001.37,0000.69,0000.20,0000.11,0000.40,0000.47,0000.74,0000.72,0000.12,17.2,23.9,,00.0,0670.3,30.9
2021-10-13T05:31:00Z,00000200,01000000,0001.03,0001.07,0000.46,0000.32,0000.14,-000.01,0000.35,0000.36,0000.75,17.2,23.9,,00.0,0670.3,30.9
2021-10-13T05:32:00Z,00000200,01000000,0002.20,0001.19,0000.75,0000.08,0000.41,0000.21,0000.46,0000.25,0000.07,17.3,23.9,,00.0,0670.3,31.0
2021-10-13T05:33:00Z,00000200,01000000,0001.54,0001.09,0000.53,0000.30,0000.18,0000.18,0000.28,0000.38,0000.38,17.4,24.0,,00.0,0670.3,31.0
2021-10-13T05:34:00Z,00000200,01000000,0001.40,0001.09,0000.65,0000.73,0000.26,0000.24,0000.42,0000.59,0000.44,17.5,24.0,,00.0,0670.3,31.0
2021-10-13T05:35:00Z,00000200,01000000,0002.58,0001.30,0000.33,0000.32,0000.24,0000.09,0000.30,0000.28,-000.06,17.5,24.0,,00.0,0670.3,31.0
2021-10-13T05:36:00Z,00000200,01000000,0001.81,0001.20,0000.41,0000.34,0000.39,0000.11,0000.60,-000.03,0000.38,17.5,24.0,,00.0,0670.3,31.0
2021-10-13T05:37:00Z,00000200,01000000,0001.82,0001.16,0000.51,0000.74,0000.65,0000.17,0000.02,0000.40,-000.35,17.5,24.1,,00.0,0670.3,31.0
2021-10-13T05:38:00Z,00000200,01000000,0001.74,0001.26,0000.77,0000.30,-000.22,0000.15,-000.11,-000.13,-000.05,17.4,24.0,,00.0,0670.3,31.0
2021-10-13T05:39:00Z,00000200,01000000,0002.33,0001.23,0000.53,0000.54,0000.19,-000.13,0002.68,0001.83,0001.95,17.4,24.0,,00.0,0670.3,31.0
2021-10-13T05:40:00Z,00000200,01000000,0002.08,0001.32,0000.51,0000.13,0000.11,0000.15,0003.43,0003.40,0002.28,17.3,24.0,,00.0,0670.3,30.9
2021-10-13T05:41:00Z,00000200,01000000,0002.18,0001.46,0000.88,0000.54,0000.34,0000.24,0006.67,0006.24,0005.02,17.2,24.0,,00.0,0670.3,30.9
2021-10-13T05:42:00Z,00000200,01000000,0002.20,0001.65,0000.77,0000.48,0000.49,0000.19,0005.57,0005.07,0004.11,17.2,23.9,,00.0,0670.3,30.9
2021-10-13T05:43:00Z,00000200,01000000,0001.70,0001.32,0000.09,0000.50,0000.16,0000.23,0004.00,0004.07,0002.92,17.2,23.9,,00.0,0670.3,30.9
2021-10-13T05:44:00Z,00000200,01000000,0002.58,0001.59,0000.76,0000.48,0000.14,0000.36,0001.79,0001.17,0001.28,17.2,23.9,,00.0,0670.3,30.9
2021-10-13T05:45:00Z,00000200,01000000,0001.96,0001.43,0000.62,0000.57,0000.19,0000.41,0000.90,0001.34,0000.67,17.2,23.9,,00.0,0670.3,30.9
2021-10-13T05:46:00Z,00000200,01000000,0002.24,0001.23,0000.35,0000.67,0000.18,0000.11,0000.69,0000.23,0000.45,17.3,23.9,,00.0,0670.3,31.0
2021-10-13T05:47:00Z,00000200,01000000,0001.61,0001.39,0000.67,0000.88,0000.31,0000.36,0000.69,0000.88,0000.41,17.4,24.0,,00.0,0670.3,31.0
2021-10-13T05:48:00Z,00000200,01000000,0001.34,0000.65,0000.23,0000.64,0000.25,-000.12,0000.66,0000.67,0000.39,17.4,24.0,,00.0,0670.3,31.0
2021-10-13T05:49:00Z,00000200,01000000,0001.10,0000.96,0000.41,0000.44,0000.10,0000.22,0000.70,0000.24,0000.82,17.5,24.0,,00.0,0670.3,31.0
2021-10-13T05:50:00Z,00000200,01000000,0003.88,0002.62,0001.65,0000.66,0000.95,0000.46,0031.61,0029.18,0022.95,17.5,24.1,,00.0,0670.3,31.0
2021-10-13T05:51:00Z,00000200,01000000,0003.09,0002.11,0001.08,0000.40,0000.32,0000.49,0013.75,0012.74,0009.92,17.4,24.1,,00.0,0670.3,31.0
2021-10-13T05:52:00Z,00000200,01000000,0002.56,0001.78,0000.52,0000.35,0000.08,0000.13,0003.73,0003.18,0002.35,17.4,24.0,,00.0,0670.3,31.0
2021-10-13T05:53:00Z,00000200,01000000,0001.80,0001.26,0000.39,0000.62,0000.29,0000.28,0000.53,0000.52,0000.43,17.3,24.0,,00.0,0670.2,30.9
2021-10-13T05:54:00Z,00000200,01000000,0001.50,0001.12,0000.73,0000.30,-000.08,0000.39,0001.60,0001.10,0001.15,17.2,24.0,,00.0,0670.2,30.9
2021-10-13T05:55:00Z,00000200,01000000,0001.48,0001.25,0000.55,0000.49,0000.21,0000.38,0005.62,0005.39,0003.88,17.2,23.9,,00.0,0670.2,30.9
2021-10-13T05:56:00Z,00000200,01000000,0004.39,0003.29,0001.78,0001.55,0001.06,0000.66,0042.74,0039.42,0031.28,17.1,23.9,,00.0,0670.2,30.9
2021-10-13T05:57:00Z,00000200,41000000,,,,,,,0023.30,0021.60,0017.06,17.1,23.9,,00.0,0670.1,30.9
2021-10-13T05:58:00Z,00000200,61000000,,,,,,,0000.34,0000.54,0000.56,16.7,24.0,,00.0,0669.2,30.9
2021-10-13T05:59:00Z,00000200,21000000,,,,,,,0000.43,0000.29,0000.04,16.7,24.1,,00.0,0669.2,30.9
